Time,B instrument,Bx,By,Bz,sigma B,Ion instrument,Status,Tp_par,Tp_perp,carrot,r_sun,clat,clong,earth_he_angle,n_p,vp_x,vp_y,vp_z,vth_p_par,vth_p_perp
1980-05-14 00:00:17,-1,nan,nan,nan,nan,1,3,nan,nan,1695,0.43780917,-7.1065931,281.30933,302.93823,nan,278.808,19.6097,17.8196,nan,nan
1980-05-14 00:00:58,-1,nan,nan,nan,nan,1,3,nan,nan,1695,0.43780911,-7.1065931,281.30542,302.93823,nan,277.528,17.149,17.7155,nan,nan
1980-05-14 00:01:38,-1,nan,nan,nan,nan,1,3,nan,nan,1695,0.43780017,-7.1065359,281.29932,302.93994,nan,278.816,20.2624,18.8868,nan,nan
1980-05-14 00:02:19,-1,nan,nan,nan,nan,1,3,nan,nan,1695,0.43779117,-7.1064796,281.29321,302.94165,nan,282.014,15.1982,19.8461,nan,nan
1980-05-14 00:02:59,-1,nan,nan,nan,nan,1,3,nan,nan,1695,0.43779117,-7.1064796,281.28931,302.94165,nan,281.637,17.5757,19.5602,nan,nan
1980-05-14 00:03:40,-1,nan,nan,nan,nan,1,3,nan,nan,1695,0.43778217,-7.1064224,281.2832,302.94336,nan,280.825,14.6309,18.6203,nan,nan
1980-05-14 00:04:20,-1,nan,nan,nan,nan,1,3,nan,nan,1695,0.43777323,-7.1063662,281.28125,302.94531,nan,276.477,17.5868,11.8211,nan,nan
1980-05-14 00:05:01,-1,nan,nan,nan,nan,1,3,nan,nan,1695,0.43776423,-7.1063089,281.27515,302.94702,nan,272.496,14.5217,2.80228,nan,nan
1980-05-14 00:05:41,-1,nan,nan,nan,nan,1,3,nan,nan,1695,0.43776423,-7.1063089,281.26733,302.94702,nan,276.603,17.8256,3.18058,nan,nan
1980-05-14 00:06:22,-1,nan,nan,nan,nan,1,3,nan,nan,1695,0.43775523,-7.1062527,281.26514,302.94873,nan,271.225,16.0199,-0.130661,nan,nan
1980-05-14 00:07:02,-1,nan,nan,nan,nan,1,3,nan,nan,1695,0.43774629,-7.1061954,281.25928,302.95068,nan,272.383,15.108,5.22013,nan,nan
1980-05-14 00:07:43,-1,nan,nan,nan,nan,1,3,nan,nan,1695,0.43774629,-7.1061954,281.25537,302.95068,nan,272.995,15.2139,4.52374,nan,nan
1980-05-14 00:08:23,-1,nan,nan,nan,nan,1,3,nan,nan,1695,0.43773729,-7.1061392,281.24927,302.95239,nan,270.49,17.7293,2.50951,nan,nan
1980-05-14 00:09:04,-1,nan,nan,nan,nan,1,3,nan,nan,1695,0.43772829,-7.1060829,281.24316,302.9541,nan,273.689,14.3281,14.8114,nan,nan
1980-05-14 00:09:44,-1,nan,nan,nan,nan,1,3,nan,nan,1695,0.43772829,-7.106082,281.23926,302.9541,nan,275.191,15.1395,16.6065,nan,nan
1980-05-14 00:10:25,-1,nan,nan,nan,nan,1,3,nan,nan,1695,0.43771935,-7.1060257,281.2334,302.95605,nan,274.604,19.1904,14.699,nan,nan
1980-05-14 00:11:05,-1,nan,nan,nan,nan,1,3,nan,nan,1695,0.43771034,-7.1059694,281.2312,302.95776,nan,275.309,17.6691,13.3945,nan,nan
1980-05-14 00:11:46,-1,nan,nan,nan,nan,1,3,nan,nan,1695,0.43771034,-7.1059694,281.22339,302.95776,nan,273.899,14.9194,13.1957,nan,nan
1980-05-14 00:12:26,-1,nan,nan,nan,nan,1,3,nan,nan,1695,0.43770134,-7.1059122,281.22119,302.95947,nan,270.944,12.0631,14.8999,nan,nan
1980-05-14 00:13:07,-1,nan,nan,nan,nan,1,3,nan,nan,1695,0.4376924,-7.1058559,281.21509,302.96118,nan,272.289,13.9368,16.4002,nan,nan
1980-05-14 00:13:47,-1,nan,nan,nan,nan,1,3,nan,nan,1695,0.4376924,-7.1058559,281.20728,302.96118,nan,271.656,11.7477,17.6073,nan,nan
1980-05-14 00:14:28,-1,nan,nan,nan,nan,1,3,nan,nan,1695,0.4376834,-7.1057987,281.20532,302.96313,nan,272.412,12.7864,15.1704,nan,nan
1980-05-14 00:15:08,-1,nan,nan,nan,nan,1,3,nan,nan,1695,0.4376744,-7.1057425,281.19922,302.96484,nan,272.221,13.6079,14.6931,nan,nan
1980-05-14 00:15:49,-1,nan,nan,nan,nan,1,3,nan,nan,1695,0.4376744,-7.1057425,281.19531,302.96484,nan,269.512,15.7333,14.134,nan,nan
1980-05-14 00:16:29,-1,nan,nan,nan,nan,1,3,nan,nan,1695,0.43766546,-7.1056852,281.18921,302.96655,nan,270.512,14.9215,15.5164,nan,nan
1980-05-14 00:17:10,-1,nan,nan,nan,nan,1,3,nan,nan,1695,0.43765646,-7.105629,281.18335,302.96851,nan,271.647,15.5262,9.90791,nan,nan
1980-05-14 00:17:50,-1,nan,nan,nan,nan,1,3,nan,nan,1695,0.43765646,-7.105629,281.17944,302.96851,nan,268.156,25.4331,-4.78284,nan,nan
1980-05-14 00:18:31,-1,nan,nan,nan,nan,1,3,nan,nan,1695,0.43764746,-7.1055717,281.17334,302.97021,nan,267.634,25.3803,-2.2912,nan,nan
1980-05-14 00:19:11,-1,nan,nan,nan,nan,1,3,nan,nan,1695,0.43763852,-7.1055155,281.17114,302.97192,nan,266.628,21.1059,6.97151,nan,nan
1980-05-14 00:19:52,-1,nan,nan,nan,nan,1,3,nan,nan,1695,0.43763846,-7.1055155,281.16333,302.97192,nan,265.915,16.9274,8.68947,nan,nan
1980-05-14 00:20:32,-1,nan,nan,nan,nan,1,3,nan,nan,1695,0.43762952,-7.1054592,281.16138,302.97388,nan,268.008,21.4641,4.61866,nan,nan
1980-05-14 00:21:13,-1,nan,nan,nan,nan,1,3,nan,nan,1695,0.43762052,-7.105402,281.15527,302.97559,nan,264.418,21.2582,8.34534,nan,nan
1980-05-14 00:21:53,-1,nan,nan,nan,nan,1,3,nan,nan,1695,0.43762052,-7.105402,281.14746,302.97559,nan,262.315,25.0045,9.51982,nan,nan
1980-05-14 00:22:34,-1,nan,nan,nan,nan,1,3,nan,nan,1695,0.43761152,-7.1053457,281.14526,302.97729,nan,262.918,23.3763,13.1106,nan,nan
1980-05-14 00:23:14,-1,nan,nan,nan,nan,1,3,nan,nan,1695,0.43760258,-7.1052885,281.13916,302.979,nan,262.166,26.0853,8.81513,nan,nan
1980-05-14 00:23:55,-1,nan,nan,nan,nan,1,3,nan,nan,1695,0.43760258,-7.1052885,281.13525,302.979,nan,262.389,24.638,5.35921,nan,nan
1980-05-14 00:24:35,-1,nan,nan,nan,nan,1,3,nan,nan,1695,0.43759358,-7.1052322,281.12939,302.98096,nan,260.71,26.1142,6.08364,nan,nan
1980-05-14 00:25:16,-1,nan,nan,nan,nan,1,3,nan,nan,1695,0.43758458,-7.105175,281.12329,302.98267,nan,260.231,23.5032,8.57388,nan,nan
1980-05-14 00:25:56,-1,nan,nan,nan,nan,1,3,nan,nan,1695,0.43758458,-7.105175,281.11938,302.98267,nan,259.958,24.643,13.6381,nan,nan
1980-05-14 00:26:37,-1,nan,nan,nan,nan,1,3,nan,nan,1695,0.43757564,-7.1051188,281.11328,302.98438,nan,261.985,27.3671,11.0348,nan,nan
1980-05-14 00:27:17,-1,nan,nan,nan,nan,1,3,nan,nan,1695,0.43756664,-7.1050615,281.11133,302.98633,nan,262.803,23.6654,15.0857,nan,nan
1980-05-14 00:27:58,-1,nan,nan,nan,nan,1,3,nan,nan,1695,0.43756664,-7.1050615,281.10352,302.98633,nan,264.225,20.2816,15.3343,nan,nan
1980-05-14 00:28:38,-1,nan,nan,nan,nan,1,3,nan,nan,1695,0.43755764,-7.1050053,281.09741,302.98804,nan,263.443,23.7248,19.1378,nan,nan
1980-05-14 00:29:19,-1,nan,nan,nan,nan,1,3,nan,nan,1695,0.4375487,-7.104948,281.09521,302.98975,nan,261.501,20.453,17.5302,nan,nan
1980-05-14 00:29:59,-1,nan,nan,nan,nan,1,3,nan,nan,1695,0.4375487,-7.104948,281.0874,302.98975,nan,261.007,23.4959,16.502,nan,nan
1980-05-14 00:30:40,-1,nan,nan,nan,nan,1,4,nan,nan,1695,0.4375397,-7.1048918,281.08545,302.9917,nan,nan,nan,nan,nan,nan
1980-05-14 00:31:20,-1,nan,nan,nan,nan,1,3,nan,nan,1695,0.4375307,-7.1048355,281.07935,302.99341,nan,263.743,13.1316,18.9642,nan,nan
1980-05-14 00:32:01,-1,nan,nan,nan,nan,1,3,nan,nan,1695,0.43752176,-7.1047783,281.07715,302.99512,nan,264.569,15.7249,17.4572,nan,nan
1980-05-14 00:32:41,-1,nan,nan,nan,nan,1,3,nan,nan,1695,0.43752176,-7.1047783,281.06934,302.99512,nan,262.266,15.2796,11.1426,nan,nan
1980-05-14 00:33:22,-1,nan,nan,nan,nan,1,3,nan,nan,1695,0.43751276,-7.104722,281.06323,302.99683,nan,261.718,20.2328,2.14296,nan,nan
1980-05-14 00:34:02,-1,nan,nan,nan,nan,1,3,nan,nan,1695,0.43750376,-7.1046648,281.06128,302.99878,nan,265.434,11.3341,10.1794,nan,nan
1980-05-14 00:34:43,-1,nan,nan,nan,nan,1,3,nan,nan,1695,0.43750376,-7.1046648,281.05347,302.99878,nan,267.313,15.7751,9.06153,nan,nan
1980-05-14 00:35:23,-1,nan,nan,nan,nan,1,4,nan,nan,1695,0.43749481,-7.1046085,281.05127,303.00049,nan,nan,nan,nan,nan,nan
1980-05-14 00:36:04,-1,nan,nan,nan,nan,1,3,nan,nan,1695,0.43748581,-7.1045513,281.04517,303.0022,nan,263.387,14.502,11.3876,nan,nan
1980-05-14 00:36:44,-1,nan,nan,nan,nan,1,3,nan,nan,1695,0.43748581,-7.1045513,281.03735,303.0022,nan,265.433,15.9979,12.6407,nan,nan
1980-05-14 00:37:25,-1,nan,nan,nan,nan,1,3,nan,nan,1695,0.43747681,-7.104495,281.0354,303.00415,nan,262.906,13.2605,12.0381,nan,nan
1980-05-14 00:38:05,-1,nan,nan,nan,nan,1,3,nan,nan,1695,0.43746787,-7.1044378,281.0293,303.00586,nan,259.798,13.2532,14.0646,nan,nan
1980-05-14 00:38:46,-1,nan,nan,nan,nan,1,3,nan,nan,1695,0.43746781,-7.1044378,281.02539,303.00586,nan,262.577,11.9986,14.3551,nan,nan
1980-05-14 00:39:26,-1,nan,nan,nan,nan,1,3,nan,nan,1695,0.43745887,-7.1043816,281.01929,303.00757,nan,261.966,18.9523,12.686,nan,nan
1980-05-14 00:40:07,-1,nan,nan,nan,nan,1,3,nan,nan,1695,0.43744987,-7.1043253,281.01343,303.00952,nan,264.067,17.8653,15.5039,nan,nan
1980-05-14 00:40:47,-1,nan,nan,nan,nan,1,3,nan,nan,1695,0.43744987,-7.1043253,281.00952,303.00952,nan,260.923,20.7298,15.8112,nan,nan
1980-05-14 00:41:28,-1,nan,nan,nan,nan,1,3,nan,nan,1695,0.43744087,-7.1042681,281.00342,303.01123,nan,262.092,19.018,13.9534,nan,nan
1980-05-14 00:42:08,-1,nan,nan,nan,nan,1,3,nan,nan,1695,0.43743193,-7.1042118,281.00122,303.01294,nan,263.774,22.7394,12.5031,nan,nan
1980-05-14 00:42:49,-1,nan,nan,nan,nan,1,3,nan,nan,1695,0.43743193,-7.1042118,280.99341,303.01294,nan,262.648,20.5422,11.636,nan,nan
1980-05-14 00:43:29,-1,nan,nan,nan,nan,1,3,nan,nan,1695,0.43742293,-7.1041546,280.99121,303.01465,nan,261.216,21.8295,12.6309,nan,nan
1980-05-14 00:44:10,-1,nan,nan,nan,nan,1,3,nan,nan,1695,0.43741393,-7.1040983,280.98535,303.0166,nan,262.963,21.515,10.7876,nan,nan
1980-05-14 00:44:50,-1,nan,nan,nan,nan,1,3,nan,nan,1695,0.43741393,-7.1040983,280.97754,303.0166,nan,263.171,22.1341,10.6955,nan,nan
1980-05-14 00:45:31,-1,nan,nan,nan,nan,1,3,nan,nan,1695,0.43740499,-7.1040411,280.97534,303.01831,nan,263.383,21.0814,13.0148,nan,nan
1980-05-14 00:46:52,-1,nan,nan,nan,nan,1,3,nan,nan,1695,0.43739599,-7.1039848,280.96533,303.02002,nan,261.992,21.8505,11.8745,nan,nan
1980-05-14 00:47:32,-1,nan,nan,nan,nan,1,3,nan,nan,1695,0.43738699,-7.1039276,280.95947,303.02197,nan,262.717,25.4193,10.8741,nan,nan
1980-05-14 00:48:13,-1,nan,nan,nan,nan,1,3,nan,nan,1695,0.43737805,-7.1038713,280.95337,303.02368,nan,263.064,25.9605,9.38354,nan,nan
1980-05-14 00:48:53,-1,nan,nan,nan,nan,1,3,nan,nan,1695,0.43737805,-7.1038713,280.94946,303.02368,nan,262.761,27.4719,6.99668,nan,nan
1980-05-14 00:49:34,-1,nan,nan,nan,nan,1,3,nan,nan,1695,0.43736905,-7.1038141,280.94336,303.02539,nan,262.886,28.7459,6.25103,nan,nan
1980-05-14 00:50:14,-1,nan,nan,nan,nan,1,3,nan,nan,1695,0.43736005,-7.1037579,280.94141,303.02734,nan,263.085,28.628,1.99721,nan,nan
1980-05-14 00:50:55,-1,nan,nan,nan,nan,1,3,nan,nan,1695,0.43736005,-7.1037579,280.93359,303.02734,nan,262.868,28.1604,1.27525,nan,nan
1980-05-14 00:51:35,-1,nan,nan,nan,nan,1,3,nan,nan,1695,0.43735111,-7.1037016,280.9314,303.02905,nan,262.948,28.6513,3.09933,nan,nan
1980-05-14 00:52:16,-1,nan,nan,nan,nan,1,3,nan,nan,1695,0.43734211,-7.1036444,280.92529,303.03076,nan,263.798,29.7415,2.64934,nan,nan
1980-05-14 00:52:56,-1,nan,nan,nan,nan,1,3,nan,nan,1695,0.43734211,-7.1036444,280.91748,303.03076,nan,263.646,29.217,-4.47933,nan,nan
1980-05-14 00:53:37,-1,nan,nan,nan,nan,1,3,nan,nan,1695,0.43733311,-7.1035881,280.91528,303.03247,nan,262.964,30.1493,-5.47203,nan,nan
1980-05-14 00:54:17,-1,nan,nan,nan,nan,1,3,nan,nan,1695,0.43732417,-7.1035309,280.90942,303.03442,nan,262.904,26.9065,-6.90744,nan,nan
1980-05-14 00:55:38,-1,nan,nan,nan,nan,1,3,nan,nan,1695,0.43731517,-7.1034746,280.89941,303.03613,nan,259.779,27.689,-12.2952,nan,nan
1980-05-14 00:56:19,-1,nan,nan,nan,nan,1,3,nan,nan,1695,0.43730617,-7.1034174,280.89331,303.03784,nan,258.694,30.7744,-6.45304,nan,nan
1980-05-14 00:56:59,-1,nan,nan,nan,nan,1,3,nan,nan,1695,0.43730617,-7.1034174,280.8894,303.03784,nan,260.75,27.1115,-10.4094,nan,nan
1980-05-14 00:58:20,-1,nan,nan,nan,nan,1,3,nan,nan,1695,0.43728822,-7.1033039,280.88135,303.0415,nan,255.774,29.843,-2.12338,nan,nan
1980-05-14 00:59:01,-1,nan,nan,nan,nan,1,3,nan,nan,1695,0.43727922,-7.1032476,280.87524,303.04321,nan,254.826,29.8057,-1.353,nan,nan
1980-05-14 00:59:41,-1,nan,nan,nan,nan,1,3,nan,nan,1695,0.43727922,-7.1032476,280.86743,303.04321,nan,271.268,23.2416,20.2796,nan,nan
1980-05-14 01:00:22,-1,nan,nan,nan,nan,1,3,nan,nan,1695,0.43727028,-7.1031914,280.86548,303.04517,nan,283.251,17.2055,23.3947,nan,nan
1980-05-14 01:01:02,-1,nan,nan,nan,nan,1,3,nan,nan,1695,0.43726128,-7.1031332,280.85938,303.04688,nan,283.736,22.1283,22.0411,nan,nan
1980-05-14 01:01:43,-1,nan,nan,nan,nan,1,3,nan,nan,1695,0.43726128,-7.1031332,280.85547,303.04688,nan,255.139,27.5411,1.95565,nan,nan
1980-05-14 01:02:23,-1,nan,nan,nan,nan,1,3,nan,nan,1695,0.43725228,-7.103076,280.84937,303.04858,nan,264.697,26.4998,9.22606,nan,nan
1980-05-14 01:03:04,-1,nan,nan,nan,nan,1,3,nan,nan,1695,0.43724334,-7.1030178,280.84741,303.05054,nan,275.635,17.3758,10.2715,nan,nan
1980-05-14 01:03:44,-1,nan,nan,nan,nan,1,3,nan,nan,1695,0.43724334,-7.1030178,280.8396,303.05054,nan,278.445,16.4491,6.77612,nan,nan
1980-05-14 01:04:25,-1,nan,nan,nan,nan,1,3,nan,nan,1695,0.43723434,-7.1029606,280.8335,303.05225,nan,280.632,11.2577,2.60028,nan,nan
1980-05-14 01:05:05,-1,nan,nan,nan,nan,1,3,nan,nan,1695,0.43722534,-7.1029034,280.8313,303.05396,nan,286.336,7.75678,1.48179,nan,nan
1980-05-14 01:05:46,-1,nan,nan,nan,nan,1,3,nan,nan,1695,0.43722534,-7.1029034,280.82349,303.05396,nan,286.197,9.49811,-4.15743,nan,nan
1980-05-14 01:06:26,-1,nan,nan,nan,nan,1,3,nan,nan,1695,0.4372164,-7.1028452,280.82153,303.05591,nan,282.636,4.78392,-1.66031,nan,nan
1980-05-14 01:07:07,-1,nan,nan,nan,nan,1,3,nan,nan,1695,0.4372074,-7.102788,280.81543,303.05762,nan,280.296,9.01069,1.70541,nan,nan
1980-05-14 01:07:47,-1,nan,nan,nan,nan,1,3,nan,nan,1695,0.4372074,-7.102788,280.80762,303.05762,nan,282.396,4.26319,0.0299664,nan,nan
1980-05-14 01:08:28,-1,nan,nan,nan,nan,1,3,nan,nan,1695,0.43719846,-7.1027298,280.80542,303.05933,nan,281.127,10.0815,4.53605,nan,nan
1980-05-14 01:09:08,-1,nan,nan,nan,nan,1,3,nan,nan,1695,0.43718946,-7.1026726,280.79956,303.06128,nan,280.678,3.86965,-0.060794,nan,nan
1980-05-14 01:09:49,-1,nan,nan,nan,nan,1,3,nan,nan,1695,0.43718946,-7.1026726,280.79565,303.06128,nan,270.229,6.37062,4.60887,nan,nan
1980-05-14 01:10:29,-1,nan,nan,nan,nan,1,3,nan,nan,1695,0.43718046,-7.1026154,280.78955,303.06299,nan,274.746,4.81796,3.268,nan,nan
1980-05-14 01:11:10,-1,nan,nan,nan,nan,1,3,nan,nan,1695,0.43717152,-7.1025572,280.78345,303.0647,nan,271.496,11.1757,8.26877,nan,nan
1980-05-14 01:11:50,-1,nan,nan,nan,nan,1,3,nan,nan,1695,0.43717152,-7.1025572,280.77954,303.0647,nan,276.577,8.70348,3.55873,nan,nan
1980-05-14 01:12:31,-1,nan,nan,nan,nan,1,3,nan,nan,1695,0.43716252,-7.1025,280.77368,303.06665,nan,269.016,16.0935,9.66456,nan,nan
1980-05-14 01:13:11,-1,nan,nan,nan,nan,1,3,nan,nan,1695,0.43715358,-7.1024418,280.77148,303.06836,nan,272.165,17.0122,12.4783,nan,nan
1980-05-14 01:13:52,-1,nan,nan,nan,nan,1,3,nan,nan,1695,0.43715352,-7.1024418,280.76367,303.06836,nan,273.847,11.495,15.6207,nan,nan
1980-05-14 01:14:32,-1,nan,nan,nan,nan,1,3,nan,nan,1695,0.43714458,-7.1023846,280.76147,303.07007,nan,285.886,2.14242,-0.482857,nan,nan
1980-05-14 01:15:13,-1,nan,nan,nan,nan,1,3,nan,nan,1695,0.43713558,-7.1023273,280.75562,303.07202,nan,281.257,6.69636,6.44746,nan,nan
1980-05-14 01:15:53,-1,nan,nan,nan,nan,1,3,nan,nan,1695,0.43713558,-7.1023273,280.7478,303.07202,nan,288.981,0.0024379,-0.479068,nan,nan
1980-05-14 01:16:34,-1,nan,nan,nan,nan,1,3,nan,nan,1695,0.43712664,-7.1022692,280.74561,303.07373,nan,287.824,1.99812,-1.49481,nan,nan
1980-05-14 01:17:14,-1,nan,nan,nan,nan,1,3,nan,nan,1695,0.43711764,-7.102212,280.7395,303.07544,nan,288.869,0.404468,0.25911,nan,nan
1980-05-14 01:17:55,-1,nan,nan,nan,nan,1,3,nan,nan,1695,0.43711764,-7.102212,280.7356,303.07544,nan,290.718,3.07043,1.116,nan,nan
1980-05-14 01:18:35,-1,nan,nan,nan,nan,1,3,nan,nan,1695,0.43710864,-7.1021538,280.72974,303.07739,nan,290.967,-0.359199,-0.751569,nan,nan
1980-05-14 01:19:16,-1,nan,nan,nan,nan,1,3,nan,nan,1695,0.4370997,-7.1020966,280.72363,303.0791,nan,292.061,1.9115,1.04171,nan,nan
1980-05-14 01:19:56,-1,nan,nan,nan,nan,1,3,nan,nan,1695,0.4370997,-7.1020966,280.71973,303.0791,nan,289.995,3.73251,3.09505,nan,nan
1980-05-14 01:20:37,-1,nan,nan,nan,nan,1,3,nan,nan,1695,0.43709069,-7.1020393,280.71362,303.08081,nan,291.259,1.89112,3.4654,nan,nan
1980-05-14 01:21:17,-1,nan,nan,nan,nan,1,3,nan,nan,1695,0.43708175,-7.1019812,280.71167,303.08276,nan,289.49,3.13755,-0.964257,nan,nan
1980-05-14 01:21:58,-1,nan,nan,nan,nan,1,3,nan,nan,1695,0.43708169,-7.1019812,280.70386,303.08276,nan,290.023,3.69348,1.4111,nan,nan
1980-05-14 01:22:37,-1,nan,nan,nan,nan,1,3,nan,nan,1695,0.43707275,-7.1019239,280.70166,303.08447,nan,283.6,8.11732,-3.75255,nan,nan
1980-05-14 01:24:39,-1,nan,nan,nan,nan,1,3,nan,nan,1695,0.43705481,-7.1018085,280.68579,303.08813,nan,287.559,1.2549,1.33335,nan,nan
1980-05-14 01:25:20,-1,nan,nan,nan,nan,1,3,nan,nan,1695,0.43704581,-7.1017513,280.67969,303.08984,nan,285.79,1.1229,-1.50851,nan,nan
1980-05-14 01:26:01,-1,nan,nan,nan,nan,1,3,nan,nan,1695,0.43703687,-7.1016932,280.67749,303.09155,nan,287.376,1.43292,-0.728024,nan,nan
1980-05-14 01:26:41,-1,nan,nan,nan,nan,1,3,nan,nan,1695,0.43703681,-7.1016932,280.66968,303.09155,nan,286.994,1.21193,-0.360531,nan,nan
1980-05-14 01:27:22,-1,nan,nan,nan,nan,1,3,nan,nan,1695,0.43702787,-7.1016359,280.66382,303.09351,nan,288.801,0.575406,1.0262,nan,nan
1980-05-14 01:28:02,-1,nan,nan,nan,nan,1,3,nan,nan,1695,0.43701887,-7.1015778,280.66162,303.09521,nan,288.021,-2.85116,2.67508,nan,nan
1980-05-14 01:28:43,-1,nan,nan,nan,nan,1,3,nan,nan,1695,0.43701887,-7.1015778,280.65381,303.09521,nan,289.043,-0.599991,-0.660008,nan,nan
1980-05-14 01:29:23,-1,nan,nan,nan,nan,1,3,nan,nan,1695,0.43700993,-7.1015205,280.65161,303.09692,nan,286.629,-0.381575,-5.04401,nan,nan
1980-05-14 01:30:04,-1,nan,nan,nan,nan,1,3,nan,nan,1695,0.43700093,-7.1014633,280.64575,303.09888,nan,289.45,-2.30702,-0.687627,nan,nan
1980-05-14 01:30:44,-1,nan,nan,nan,nan,1,3,nan,nan,1695,0.43700093,-7.1014633,280.63794,303.09888,nan,285.74,1.61039,5.58771,nan,nan
1980-05-14 01:31:25,-1,nan,nan,nan,nan,1,3,nan,nan,1695,0.43699193,-7.1014051,280.63574,303.10059,nan,285.408,-2.75364,6.67557,nan,nan
1980-05-14 01:32:05,-1,nan,nan,nan,nan,1,3,nan,nan,1695,0.43698299,-7.1013479,280.62964,303.10229,nan,280.163,5.47133,10.0509,nan,nan
1980-05-14 01:32:46,-1,nan,nan,nan,nan,1,3,nan,nan,1695,0.43698299,-7.1013479,280.62573,303.10229,nan,280.426,9.49983,8.09371,nan,nan
1980-05-14 01:33:26,-1,nan,nan,nan,nan,1,3,nan,nan,1695,0.43697399,-7.1012897,280.61987,303.10425,nan,282.424,8.19833,9.52578,nan,nan
1980-05-14 01:34:07,-1,nan,nan,nan,nan,1,3,nan,nan,1695,0.43696505,-7.1012325,280.61377,303.10596,nan,282.183,13.3775,8.22918,nan,nan
1980-05-14 01:34:47,-1,nan,nan,nan,nan,1,3,nan,nan,1695,0.43696499,-7.1012325,280.60986,303.10596,nan,281.327,12.7127,9.64188,nan,nan
1980-05-14 01:35:28,-1,nan,nan,nan,nan,1,3,nan,nan,1695,0.43695605,-7.1011753,280.60376,303.10767,nan,280.13,12.0516,8.09598,nan,nan
1980-05-14 01:36:08,-1,nan,nan,nan,nan,1,3,nan,nan,1695,0.43694705,-7.1011171,280.60181,303.10962,nan,282.111,12.252,10.2368,nan,nan
1980-05-14 01:36:49,-1,nan,nan,nan,nan,1,3,nan,nan,1695,0.43694705,-7.1011171,280.59399,303.10962,nan,278.991,9.22057,9.10602,nan,nan
1980-05-14 01:37:29,-1,nan,nan,nan,nan,1,3,nan,nan,1695,0.43693811,-7.1010599,280.5918,303.11133,nan,286.087,3.40306,5.44272,nan,nan
1980-05-14 01:38:10,-1,nan,nan,nan,nan,1,3,nan,nan,1695,0.43692911,-7.1010017,280.58569,303.11304,nan,283.462,8.69115,7.23842,nan,nan
1980-05-14 01:39:31,-1,nan,nan,nan,nan,1,3,nan,nan,1695,0.43692011,-7.1009445,280.57593,303.11499,nan,283.202,6.55487,8.59941,nan,nan
1980-05-14 01:40:11,-1,nan,nan,nan,nan,1,3,nan,nan,1695,0.43691117,-7.1008873,280.56982,303.1167,nan,279.976,6.84851,6.66485,nan,nan
1980-05-14 01:40:52,-1,nan,nan,nan,nan,1,3,nan,nan,1695,0.43691117,-7.1008873,280.56592,303.1167,nan,281.105,6.41225,6.47649,nan,nan
1980-05-14 01:41:32,-1,nan,nan,nan,nan,1,3,nan,nan,1695,0.43690217,-7.1008291,280.55981,303.11841,nan,280.269,5.94757,7.01556,nan,nan
1980-05-14 01:42:13,-1,nan,nan,nan,nan,1,3,nan,nan,1695,0.43689322,-7.1007719,280.55396,303.12036,nan,281.844,7.55571,5.73699,nan,nan
1980-05-14 01:42:53,-1,nan,nan,nan,nan,1,3,nan,nan,1695,0.43689322,-7.1007719,280.55005,303.12036,nan,280.932,7.83324,6.73752,nan,nan
1980-05-14 03:01:55,-1,nan,nan,nan,nan,1,3,nan,nan,1695,0.43618417,-7.0961647,279.96509,303.26196,nan,280.676,10.3166,13.8269,nan,nan
1980-05-14 03:02:36,1,7.53333,-5.19167,-6.125,1.10069,1,1,45806.8,35003.0,1695,0.43617517,-7.0961056,279.95898,303.26367,66.437,283.835,7.24472,13.9206,27.4994,24.0387
1980-05-14 03:03:16,1,5.85833,-4.84167,-7.875,0.424346,1,1,36429.2,31125.9,1695,0.43616623,-7.0960455,279.95703,303.26563,67.6842,284.237,8.7467,11.9819,24.5235,22.6683
1980-05-14 03:03:57,1,8.31667,-5.10833,-4.71667,1.15911,1,1,34045.0,33239.9,1695,0.43616623,-7.0960455,279.94922,303.26563,68.7372,282.063,6.78629,8.67739,23.7075,23.4254
1980-05-14 03:04:38,1,8.49091,-4.98182,-3.70909,0.309625,1,1,33504.0,29932.3,1695,0.43615723,-7.0959864,279.94702,303.26733,66.4934,282.817,7.47678,8.28722,23.5183,22.2294
1980-05-14 03:05:19,1,7.72727,-5.05455,-5.61818,0.405132,1,1,35294.2,31866.8,1695,0.43614829,-7.0959263,279.94092,303.26904,68.7902,281.806,7.04109,10.2847,24.1384,22.9365
1980-05-14 03:05:59,1,6.71667,-4.975,-5.86667,0.497145,1,1,36870.4,29069.6,1695,0.43614829,-7.0959263,279.93311,303.26904,70.187,280.539,10.4169,11.1538,24.6716,21.9067
1980-05-14 03:06:40,1,7.29091,-4.81818,-5.81818,0.578542,1,1,34921.5,31578.5,1695,0.43613929,-7.0958672,279.93115,303.271,67.4725,281.977,7.13799,8.71229,24.0107,22.8325
1980-05-14 03:07:20,1,6.78333,-5.13333,-6.43333,0.51559,1,1,33034.7,31228.0,1695,0.43613034,-7.095808,279.92505,303.27271,68.325,282.004,8.12667,8.84776,23.353,22.7054
1980-05-14 03:08:01,1,6.65455,-5.01818,-6.14545,1.18287,1,1,41456.7,32185.3,1695,0.4361214,-7.0957479,279.9231,303.27466,72.9735,280.558,7.20569,9.37225,26.1611,23.0508
1980-05-14 03:08:41,1,5.40909,-3.62727,-7.44545,1.02061,1,1,44381.4,31712.8,1695,0.43612134,-7.0957479,279.91528,303.27466,73.359,283.555,7.45278,13.6195,27.0681,22.881
1980-05-14 03:09:22,1,4.98333,-4.375,-6.90833,0.683638,1,1,42514.5,32028.5,1695,0.4361124,-7.0956888,279.91309,303.27637,73.8653,281.743,12.1821,11.2051,26.4927,22.9946
1980-05-14 03:10:02,1,4.82727,-5.08182,-7.79091,0.21047,1,1,33305.3,29323.3,1695,0.43610346,-7.0956287,279.90698,303.27808,71.8629,281.789,12.4374,11.2875,23.4485,22.0021
1980-05-14 03:10:43,1,4.88333,-5.28333,-7.10833,0.680839,1,1,38466.1,31945.4,1695,0.4361034,-7.0956287,279.89917,303.27808,73.4738,280.787,13.7923,11.9196,25.1998,22.9648
1980-05-14 03:11:23,1,6.59091,-4.72727,-5.07273,0.820905,1,1,34655.2,28351.2,1695,0.43609446,-7.0955696,279.89722,303.28003,73.5522,277.544,12.95,10.2798,23.919,21.6343
1980-05-14 03:12:04,1,6.97273,-5.09091,-4.88182,0.608072,1,1,35366.0,33442.6,1695,0.43608552,-7.0955095,279.89111,303.28174,75.118,278.695,12.5396,9.39354,24.163,23.4967
1980-05-14 03:12:44,1,7.23636,-4.95455,-4.20909,0.335995,1,1,33226.3,29371.2,1695,0.43608546,-7.0955095,279.88721,303.28174,72.8605,277.084,12.731,8.19871,23.4207,22.0201
1980-05-14 03:13:25,1,6.89091,-5.19091,-5.17273,0.29542,1,1,35229.5,33943.3,1695,0.43607652,-7.0954504,279.8811,303.28345,75.7783,277.348,14.4906,8.47052,24.1163,23.672
1980-05-14 03:14:05,1,6.775,-5.09167,-4.39167,0.616498,1,1,37014.4,30417.5,1695,0.43606758,-7.0953903,279.87524,303.2854,76.4223,276.8,13.5956,7.07719,24.7197,22.4089
1980-05-14 03:14:46,1,6.4,-4.42727,-3.84545,0.323207,1,1,41572.5,34789.2,1695,0.43606752,-7.0953903,279.87134,303.2854,79.0581,277.401,14.0079,8.32333,26.1976,23.9652
1980-05-14 03:15:26,1,6.625,-4.41667,-3.80833,0.352176,1,1,41262.6,31776.0,1695,0.43605858,-7.0953312,279.86523,303.28711,78.0261,277.971,12.7489,7.59609,26.0998,22.9038
1980-05-14 03:16:07,1,6.79091,-4.92727,-4.18182,0.457987,1,1,39374.0,34479.1,1695,0.43604964,-7.0952721,279.86328,303.28906,79.4438,276.084,14.5647,8.3999,25.4954,23.8581
1980-05-14 03:16:47,1,5.83333,-5.46667,-6.56667,0.376386,1,1,34273.9,28511.9,1695,0.43604958,-7.0952721,279.85547,303.28906,71.8603,277.14,13.5902,10.2084,23.787,21.6956
1980-05-14 03:17:28,1,6.5,-5.22727,-5.78182,0.438819,1,1,38032.5,34249.3,1695,0.43604064,-7.095212,279.84937,303.29077,77.5829,278.423,14.7988,10.3136,25.0574,23.7784
1980-05-14 03:18:08,1,6.25833,-5.14167,-6.89167,0.388104,1,1,37319.6,30770.6,1695,0.4360317,-7.0951529,279.84717,303.29248,76.9457,277.396,13.4206,9.30333,24.8214,22.5385